Home   Weather   Station Nord   Past weeks

Flag for Greenland Past Weather in Station Nord, Greenland — Yesterday and Last 2 Weeks

Now
-25 °F

Extremely cold.


Feels Like: -37 °F
Forecast: -16 / -10 °F
Wind: 3 mph from Northwest

Location: Kap Morris Jesup

Current Time: Dec 10, 2016 at 5:01:26 am

Latest Report: Dec 10, 2016 at 3:00 am


Visibility: N/A

Pressure: 29.95 "Hg

Humidity: 73%

Dew Point: -31 °F

Location of Station NordLocation

Past Weather in Station Nord — Graph

°F

Station Nord Temperature Yesterday

Maximum temperature yesterday: -3 °F (at 6:00 am)
Minimum temperature yesterday: -25 °F (at 8:00 pm)
Average temperature yesterday: -19 °F

High & Low Weather Summary for the Past Weeks

 TemperatureHumidityPressure
High16 °F (Dec 2, 4:00 pm)89% (Dec 3, 2:00 am)30.45 "Hg (Dec 3, 2:00 am)
Low-25 °F (Dec 10, 3:00 am)49% (Dec 7, 12:00 am)29.50 "Hg (Dec 2, 2:00 pm)
Average-10 °F74%30.06 "Hg
* Reported Nov 25 3:00 am — Dec 10 3:00 am, Station Nord, Weather by CustomWeather, © 2016

Note: Actual official high and low records may vary slightly from our data, if they occured in-between our weather recording intervals... More about our weather records

Advertising

Station Nord Weather History for the Previous 24 Hours

Scroll right to see more
 ConditionsComfort  
Time TempWeatherWind HumidityBarometerVisibility
3:00 am
Sat, Dec 10
-25 °FExtremely cold.3 mph73%29.95 "HgN/A
2:00 am-23 °FExtremely cold.2 mph71%29.96 "HgN/A
1:00 am-23 °FExtremely cold.3 mph73%29.96 "HgN/A
12:00 am-23 °FExtremely cold.5 mph72%29.96 "HgN/A
11:00 pm
Fri, Dec 9
-25 °FExtremely cold.2 mph73%29.96 "HgN/A
10:00 pm-25 °FExtremely cold.10 mph73%29.95 "HgN/A
9:00 pm-25 °FExtremely cold.5 mph73%29.95 "HgN/A
8:00 pm-25 °FExtremely cold.5 mph73%29.93 "HgN/A
7:00 pm-25 °FExtremely cold.9 mph73%29.92 "HgN/A
6:00 pm-23 °FExtremely cold.10 mph73%29.92 "HgN/A
5:00 pm-23 °FExtremely cold.8 mph73%29.91 "HgN/A
4:00 pm-21 °FExtremely cold.6 mph72%29.90 "HgN/A
3:00 pm-21 °FExtremely cold.6 mph74%29.88 "HgN/A
2:00 pm-20 °FExtremely cold.6 mph73%29.87 "HgN/A
1:00 pm-19 °FExtremely cold.6 mph73%29.87 "HgN/A
12:00 pm-19 °FExtremely cold.6 mph73%29.86 "HgN/A
11:00 am-19 °FExtremely cold.9 mph73%29.85 "HgN/A
10:00 am-20 °FExtremely cold.7 mph73%29.83 "HgN/A
9:00 am-19 °FExtremely cold.15 mph75%29.80 "HgN/A
8:00 am-18 °FExtremely cold.20 mph73%29.76 "HgN/A
7:00 am-5 °FFrigid.22 mph61%29.71 "HgN/A
6:00 am-3 °FFrigid.20 mph54%29.70 "HgN/A
5:00 am-14 °FExtremely cold.3 mph71%29.73 "HgN/A
Weather by CustomWeather, © 2016

See weather overviewHow to use our weather pages